STARLINK-1219 (45210 NORAD) Tracking and Keplerian Element Data

This shows tracking and keplerian element data for the satellite.

Feedback or suggestion? Click here.




ElementValue
Catalog45210
NameSTARLINK-1219
Epoch Orbit2141
Epoch Day185.50001157
Epoch Year2020
RAAN342.5053
Inclination52.9983
Eccentricity0.0001304
Argument of Perigee102.9249
Mean Anonmoly201.4681
Mean Motion15.05578158
Decay Rate-9.178E-05
L11 45210U 20012AJ 20185.50001157 -.00009178 00000-0 -61156-3 0 9991
L22 45210 52.9983 342.5053 0001304 102.9249 201.4681 15.05578158 21412

Live tracking and technical data element details for STARLINK-1219 (NORAD 45210). STARLINK-1219 can be tracked NOW for your location showing map with azimuth and elevation plus other details from your city location.

Track the satellite on the map from your city or location and see movement details for azimuth, elevation, latitude, longitude, range, height, and movement on the map or in text.







IsCatalogInMostPopularTable: catalog: 45210, numindb: 27
Update: records affected: 1



GetName: 45210 STARLINK-1219

Hit Count: updated at: Fri, 03 Jul 2020 17:08:33 GMT